Flag Weather past 2 weeks in Kassel, Hesse, Germany

Now
41 °F

Fog.


Feels Like: 35 °F
Forecast: 37 / 48 °F
Wind: 9 mph from South

Location: Fritzlar Airport

Current Time: Nov 23, 2014 at 4:44:06 AM

Latest Report: Nov 23, 2014 at 3:20 AM


Visibility: 3 mi

Pressure: 30.18 "Hg

Humidity: 93%

Dew point: 39 °F

Location of KasselLocation

Historic Weather in Kassel — Graph

°F

Kassel temperature yesterday

Maximum temperature yesterday: 45 °F (at 7:20 PM)
Minimum temperature yesterday: 30 °F (at 1:50 AM)
Average temperature yesterday: 37 °F

Past Weeks' High & Low Weather Summary

 TemperatureHumidityPressure
High54 °F (Nov 11, 3:20 PM)100% (Nov 9, 12:20 AM)30.33 "Hg (Nov 9, 12:20 AM)
Low30 °F (Nov 22, 1:50 AM)71% (Nov 8, 4:20 PM)29.50 "Hg (Nov 16, 4:20 AM)
Average45 °F90%29.89 "Hg
* Reported Nov 8 3:20 AM — Nov 23 3:20 AM, Kassel, Weather by CustomWeather, © 2014

Note: Actual official high and low records may vary slightly from our data, if they occured in-between our weather recording intervals... More about our weather records

Advertising

Kassel weather history for previous 24 hours

 ConditionsComfort  
Time TempWeatherWind HumidityBarometerVisibility
3:20 AM
Nov 23
41 °FFog.9 mph93%30.18 "Hg3 mi
2:20 AM41 °FFog.7 mph93%30.18 "Hg1 mi
1:20 AM41 °FFog.7 mph100%30.18 "Hg1 mi
12:20 AM41 °FFog.7 mph100%30.18 "Hg1 mi
11:20 PM
Nov 22
41 °FFog.9 mph100%30.18 "Hg1 mi
10:20 PM43 °FFog.6 mph93%30.18 "Hg1 mi
9:20 PM43 °FFog.6 mph93%30.15 "Hg1 mi
8:50 PM43 °FFog.8 mph93%30.15 "Hg1 mi
8:20 PM43 °FFog.7 mph93%30.15 "Hg3 mi
7:20 PM45 °FLow clouds.5 mph87%30.15 "Hg4 mi
6:45 PM43 °FLow clouds.3 mph93%30.15 "Hg5 mi
6:20 PM43 °FLow clouds.3 mph93%30.15 "Hg6 mi
5:20 PM43 °FLow clouds.3 mph93%30.15 "Hg5 mi
4:20 PM43 °FLow clouds.5 mph93%30.15 "Hg4 mi
3:20 PM43 °FLow clouds.6 mph93%30.15 "HgN/A
2:20 PM43 °FLow clouds.5 mph87%30.15 "HgN/A
2:04 PM43 °FLow clouds.6 mph87%30.15 "HgN/A
1:20 PM43 °FPartly sunny.8 mph87%30.15 "HgN/A
12:20 PM41 °FPartly sunny.9 mph87%30.15 "HgN/A
11:20 AM37 °FScattered clouds.6 mph93%30.18 "Hg5 mi
10:20 AM34 °FPartly sunny.1 mph93%30.18 "Hg4 mi
9:20 AM32 °FIce fog.1 mph93%30.18 "Hg3 mi
8:20 AM30 °FIce fog.1 mph93%30.15 "Hg3 mi
7:20 AM30 °FIce fog.1 mph93%30.15 "Hg2 mi
6:20 AM30 °FFog.5 mph100%30.15 "Hg1 mi
5:50 AM30 °FIce fog.5 mph100%30.15 "Hg1 mi
5:20 AM30 °FIce fog.5 mph100%30.15 "Hg1 mi
4:20 AM30 °FLight fog.5 mph100%30.15 "Hg1 mi
Weather by CustomWeather, © 2014

See weather overviewHow to use our weather pages